North Bend, OR

1:24 PM PDT on October 01, 2016 (GMT -0700)
North Bend Municipal

Weather History for KOTH - September, 2012

Change the Weather History Date:

Saturday, September 8, 2012

  Actual Average Record
Temperature  
Mean Temperature 58 °F 58 °F  
Max Temperature 61 °F 65 °F 80 °F (1960)
Min Temperature 54 °F 51 °F 40 °F (1980)
Degree Days  
Heating Degree Days 7 7  
Month to date heating degree days 68 51  
Since 1 July heating degree days 399 430  
Cooling Degree Days 0 0  
Month to date cooling degree days 0 0  
Year to date cooling degree days 0 1  
Growing Degree Days 6 (Base 50)    
Moisture  
Dew Point 52 °F    
Average Humidity 88    
Maximum Humidity 100    
Minimum Humidity 69    
Precipitation  
Precipitation 0.00 in 0.04 in 0.60 in (1978)
Month to date precipitation 0.00 0.30  
Year to date precipitation 28.80 37.54  
Sea Level Pressure  
Sea Level Pressure 30.09 in    
Wind  
Wind Speed 5 mph (SW)    
Max Wind Speed 12 mph    
Max Gust Speed 12 mph    
Visibility 8 miles    
Events      
T = Trace of Precipitation, MM = Missing Value Source: NWS Daily Summary

Daily Weather History Graph

Daily Weather History Graph

Search for Another Location

Airport or City:

Trip Planner

Search our weather history database for the weather conditions in past years. The results will help you decide how hot, cold, wet, or windy it might be!

Date:

Astronomy

Sep. 08, 2012 Rise Set
Actual Time 6:49 AM PDT 7:38 PM PDT
Civil Twilight 6:20 AM PDT 8:07 PM PDT
Nautical Twilight 5:45 AM PDT 8:41 PM PDT
Astronomical Twilight 5:09 AM PDT 9:17 PM PDT
Moon No Moon Rise 2:48 PM PDT (9/8)
Length of Visible Light 13h 47m
Length of Day
12h 49m
Waning Gibbous, 48% of the Moon is Illuminated
Sep 8
Waning Gibbous
Sep 15
New
Sep 22
First Quarter
Sep 29
Full
Oct 8
Last Quarter

Hourly Weather History & Observations

Time (PDT) Temp. Dew Point Humidity Pressure Visibility Wind Dir Wind Speed Gust Speed Precip Events Conditions
12:15 AM 55.4 °F 53.6 °F 94% 30.11 in 3.0 mi WSW 4.6 mph - N/A   Overcast
12:35 AM 53.6 °F 53.6 °F 100% 30.11 in 3.0 mi WSW 5.8 mph - N/A   Overcast
12:55 AM 53.6 °F 51.8 °F 94% 30.10 in 9.0 mi WSW 4.6 mph - N/A   Overcast
1:15 AM 53.6 °F 51.8 °F 94% 30.10 in 10.0 mi WSW 4.6 mph - N/A   Overcast
1:35 AM 53.6 °F 53.6 °F 100% 30.09 in 9.0 mi WSW 4.6 mph - N/A   Overcast
1:55 AM 53.6 °F 51.8 °F 94% 30.09 in 9.0 mi WSW 6.9 mph - N/A   Overcast
2:15 AM 53.6 °F 53.6 °F 100% 30.09 in 10.0 mi WSW 3.5 mph - N/A   Overcast
2:35 AM 53.6 °F 53.6 °F 100% 30.09 in 10.0 mi South 3.5 mph - N/A   Overcast
2:55 AM 53.6 °F 53.6 °F 100% 30.09 in 10.0 mi SSE 4.6 mph - N/A   Overcast
3:15 AM 53.6 °F 53.6 °F 100% 30.09 in 10.0 mi Calm Calm - N/A   Overcast
3:35 AM 53.6 °F 53.6 °F 100% 30.09 in 10.0 mi South 3.5 mph - N/A   Overcast
3:55 AM 53.6 °F 51.8 °F 94% 30.09 in 8.0 mi SSW 3.5 mph - N/A   Overcast
4:15 AM 53.6 °F 51.8 °F 94% 30.09 in 5.0 mi Calm Calm - N/A   Overcast
4:35 AM 53.6 °F 51.8 °F 94% 30.09 in 6.0 mi Calm Calm - N/A   Overcast
4:55 AM 53.6 °F 51.8 °F 94% 30.09 in 10.0 mi Calm Calm - N/A   Overcast
5:15 AM 53.6 °F 51.8 °F 94% 30.09 in 8.0 mi South 3.5 mph - N/A   Overcast
5:35 AM 53.6 °F 51.8 °F 94% 30.10 in 8.0 mi Calm Calm - N/A   Overcast
5:55 AM 53.6 °F 51.8 °F 94% 30.10 in 7.0 mi SSE 4.6 mph - N/A   Overcast
6:15 AM 53.6 °F 51.8 °F 94% 30.10 in 10.0 mi SSE 4.6 mph - N/A   Overcast
6:35 AM 53.6 °F 51.8 °F 94% 30.10 in 9.0 mi South 3.5 mph - N/A   Overcast
6:55 AM 53.6 °F 51.8 °F 94% 30.10 in 2.0 mi SSE 3.5 mph - N/A   Overcast
7:15 AM 53.6 °F 51.8 °F 94% 30.11 in 2.0 mi SSE 4.6 mph - N/A   Overcast
7:35 AM 53.6 °F 51.8 °F 94% 30.11 in 2.0 mi Calm Calm - N/A   Overcast
7:55 AM 53.6 °F 51.8 °F 94% 30.12 in 2.0 mi SSE 3.5 mph - N/A   Overcast
8:15 AM 53.6 °F 53.6 °F 100% 30.12 in 2.0 mi SE 3.5 mph - N/A   Overcast
8:35 AM 53.6 °F 53.6 °F 100% 30.11 in 2.0 mi SSE 3.5 mph - N/A   Overcast
8:55 AM 55.4 °F 53.6 °F 94% 30.11 in 2.5 mi ESE 4.6 mph - N/A   Overcast
9:15 AM 55.4 °F 53.6 °F 94% 30.11 in 2.5 mi ESE 5.8 mph - N/A   Overcast
9:35 AM 55.4 °F 55.4 °F 100% 30.11 in 2.5 mi SE 4.6 mph - N/A   Overcast
9:55 AM 55.4 °F 55.4 °F 100% 30.11 in 2.5 mi SSE 3.5 mph - N/A   Overcast
10:15 AM 55.4 °F 53.6 °F 94% 30.11 in 4.0 mi Calm Calm - N/A   Overcast
10:35 AM 57.2 °F 53.6 °F 88% 30.11 in 4.0 mi South 4.6 mph - N/A   Overcast
10:55 AM 57.2 °F 53.6 °F 88% 30.11 in 4.0 mi SW 3.5 mph - N/A   Overcast
11:15 AM 57.2 °F 53.6 °F 88% 30.11 in 4.0 mi SW 3.5 mph - N/A   Overcast
11:35 AM 57.2 °F 53.6 °F 88% 30.11 in 4.0 mi West 6.9 mph - N/A   Overcast
11:55 AM 57.2 °F 53.6 °F 88% 30.11 in 4.0 mi WSW 5.8 mph - N/A   Overcast
12:15 PM 57.2 °F 53.6 °F 88% 30.11 in 4.0 mi WSW 8.1 mph - N/A   Overcast
12:35 PM 57.2 °F 53.6 °F 88% 30.11 in 4.0 mi WSW 6.9 mph - N/A   Overcast
12:55 PM 57.2 °F 53.6 °F 88% 30.11 in 4.0 mi West 8.1 mph - N/A   Overcast
1:15 PM 59.0 °F 51.8 °F 77% 30.11 in 10.0 mi West 9.2 mph - N/A   Overcast
1:35 PM 59.0 °F 51.8 °F 77% 30.11 in 10.0 mi WSW 9.2 mph - N/A   Overcast
1:55 PM 60.8 °F 51.8 °F 72% 30.10 in 10.0 mi WSW 9.2 mph - N/A   Overcast
2:15 PM 60.8 °F 51.8 °F 72% 30.10 in 10.0 mi West 10.4 mph - N/A   Overcast
2:35 PM 59.0 °F 51.8 °F 77% 30.10 in 10.0 mi West 9.2 mph - N/A   Overcast
2:55 PM 59.0 °F 51.8 °F 77% 30.09 in 10.0 mi WSW 10.4 mph - N/A   Overcast
3:15 PM 57.2 °F 51.8 °F 82% 30.09 in 10.0 mi WSW 10.4 mph - N/A   Overcast
3:35 PM 57.2 °F 51.8 °F 82% 30.09 in 10.0 mi WSW 12.7 mph - N/A   Overcast
3:55 PM 57.2 °F 50.0 °F 77% 30.09 in 10.0 mi WSW 11.5 mph - N/A   Overcast
4:15 PM 59.0 °F 50.0 °F 72% 30.09 in 10.0 mi WSW 10.4 mph - N/A   Overcast
4:35 PM 60.8 °F 50.0 °F 68% 30.08 in 10.0 mi WSW 9.2 mph - N/A   Overcast
4:55 PM 59.0 °F 50.0 °F 72% 30.08 in 10.0 mi WSW 8.1 mph - N/A   Overcast
5:15 PM 60.8 °F 51.8 °F 72% 30.08 in 10.0 mi West 4.6 mph - N/A   Mostly Cloudy
5:35 PM 60.8 °F 50.0 °F 68% 30.08 in 10.0 mi WSW 4.6 mph - N/A   Mostly Cloudy
5:55 PM 60.8 °F 50.0 °F 68% 30.07 in 10.0 mi West 4.6 mph - N/A   Mostly Cloudy
6:15 PM 59.0 °F 50.0 °F 72% 30.07 in 10.0 mi West 4.6 mph - N/A   Mostly Cloudy
6:35 PM 57.2 °F 50.0 °F 77% 30.08 in 10.0 mi West 8.1 mph - N/A   Mostly Cloudy
6:55 PM 55.4 °F 50.0 °F 82% 30.08 in 10.0 mi West 6.9 mph - N/A   Mostly Cloudy
7:15 PM 53.6 °F 50.0 °F 88% 30.08 in 10.0 mi West 3.5 mph - N/A   Mostly Cloudy
7:35 PM 53.6 °F 50.0 °F 88% 30.08 in 10.0 mi Calm Calm - N/A   Scattered Clouds
7:55 PM 53.6 °F 50.0 °F 88% 30.08 in 9.0 mi West 4.6 mph - N/A   Mostly Cloudy
8:15 PM 53.6 °F 48.2 °F 82% 30.08 in 10.0 mi West 4.6 mph - N/A   Overcast
8:35 PM 55.4 °F 48.2 °F 77% 30.09 in 10.0 mi WSW 3.5 mph - N/A   Overcast
8:55 PM 55.4 °F 50.0 °F 82% 30.08 in 10.0 mi SE 3.5 mph - N/A   Overcast
9:15 PM 55.4 °F 50.0 °F 82% 30.08 in 10.0 mi Calm Calm - N/A   Overcast
9:35 PM 55.4 °F 51.8 °F 88% 30.08 in 10.0 mi ESE 5.8 mph - N/A   Overcast
9:55 PM 55.4 °F 51.8 °F 88% 30.08 in 10.0 mi ESE 3.5 mph - N/A   Overcast
10:15 PM 55.4 °F 51.8 °F 88% 30.08 in 10.0 mi ESE 3.5 mph - N/A   Overcast
10:35 PM 55.4 °F 51.8 °F 88% 30.08 in 10.0 mi SSE 3.5 mph - N/A   Overcast
10:55 PM 55.4 °F 51.8 °F 88% 30.08 in 10.0 mi WSW 4.6 mph - N/A   Overcast
11:15 PM 55.4 °F 51.8 °F 88% 30.08 in 10.0 mi Calm Calm - N/A   Overcast
11:35 PM 55.4 °F 51.8 °F 88% 30.08 in 10.0 mi Calm Calm - N/A   Overcast
11:55 PM 55.4 °F 51.8 °F 88% 30.08 in 7.0 mi SW 3.5 mph - N/A   Overcast